Location: ???????
(55.4362°N, 38.1183°E)
Time: 12:52:53
(UTC+00:00)

Cosmos 2219 Rocket - Pass Details

Date: 27 October 2021
Orbit: 826 x 848 km, 71.0° (Epoch: 01 December)

Event Time Altitude Azimuth Distance (km) Brightness Sun altitude
Exits shadow 00:50:05 41° 354° (N) 1,217 3.0 -30.2°
Maximum altitude 00:51:50 57° 49° (NE) 992 2.7 -29.9°
Drops below altitude 10° 00:57:24 10° 128° (SE) 2,467 4.9 -29.2°
Sets 00:59:54 0° 132° (SE) 3,401 5.7 -28.9°
